sat.trackr.live / text

‹ back to catalog

STARLINK-5768

NORAD 57145 · 2023-090AW

PAYLOAD ACTIVE UNKNOWN

§ Identity

Operator
Country
US
Launch date
2023-06-23
Launch site
AFETR
Launch vehicle
Mass (kg)
RCS (m²)

Purposes: comms

External: N2YO · Heavens-Above · Gunter

§ Orbital elements

Epoch: 2026-05-25T03:20:22.775136Z

Period
94.27 min
Inclination
43.0018°
Eccentricity
0.0000813
Mean motion
15.27592403 rev/d
Perigee alt
482.5 km
Apogee alt
483.6 km
Semi-major
6,861.1 km
B*
-1.4726e-4
RAAN
191.7313°
Arg perigee
322.6630°
Mean anomaly
37.4165°
Rev number
16,204

§ Raw data

STARLINK-57681 57145U 23090AW  26145.13915249 -.00004313  00000+0 -14726-3 0  99932 57145  43.0018 191.7313 0000813 322.6630  37.4165 15.27592403162046

JSON: /api/v1/satellites/57145 · /tle

For live sub-satellite position, see the globe view (requires WebGL).

§ Visibility from observer

Set your observer location to see the next 7 days of passes ≥ 10°. The values pass through the URL so the page stays shareable.

No JS? Fill the form by hand. The geolocation button needs JavaScript.